If you wish to contribute or participate in the discussions about articles you are invited to join SKYbrary as a registered user

 Actions

Minden-Tahoe Airport

From SKYbrary Wiki

KMEV
Airport
ICAO: KMEV – IATA: MEV
Summary
Name Minden-Tahoe Airport
Region North America
Territory United States US.gif
Location Minden, Nevada
Serving Minden
Elevation 1,440.485 m
4,726 ft
4,726 ft1,440.485 m
Coordinates 39° 0' 1.98" N, 119° 45' 8.30" W
Runways
Designator Length Width Surface ROPS
12/30 1615 m5,298.556 ft
23 m75.459 ft
ASPH-G yes/yes
12G/30G 671 m2,201.444 ft
18 m59.055 ft
DIRT-G /
16/34 2256 m7,401.575 ft
30 m98.425 ft
ASP yes/yes


METAR
Observation KMEV 121135Z AUTO 12003KT 10SM CLR 10/02 A3020 RMK AO2
Station Minden-Tahoe Airport
Date/Time 12 July 2020 11:35:00
Wind direction 120°
Wind speed 03 kts
Lowest cloud amount n/a
Temperature 10°C
Dew point 2°C
Humidity 57%
QNH hPa
Weather condition n/a

Maps

Terrain

Loading map...

Airport Layout

Loading map...


Accidents & Serious Incidents at or in vicinity of KMEV

None on SKYbrary